EW9776 Weather Reports


time (UTC)temp
F
wind
direction
speed
knots
gust
knots
rain 1hr
in
rain 24hr
in
rain mn
in
humidity
%
barometer
mb
20260508140037 51 22 2.6 7.0 0.00 0.00 0.00 71 1018.8
20260508134533 50 45 3.5 6.1 0.00 0.00 0.00 72 1018.7
20260508133034 50 88 1.7 6.1 0.00 0.00 0.00 71 1018.6
20260508131536 50 50 0.9 5.2 0.00 0.00 0.00 70 1018.5
20260508130145 50 113 2.6 7.0 0.00 0.00 0.00 70 1018.4
20260508124537 50 63 3.5 7.0 0.00 0.00 0.00 69 1018.3
20260508121532 48 66 2.6 9.6 0.00 0.00 0.00 71 1018.2
20260508120110 46 112 0.9 5.2 0.00 0.00 0.00 77 1018.1
20260508114610 46 136 0.0 3.5 0.00 0.00 0.00 76 1018.1
20260508113033 47 139 0.9 3.5 0.00 0.00 0.00 75 1018.0
20260508111533 47 150 1.7 3.5 0.00 0.00 0.00 75 1017.9
20260508104533 46 128 0.9 3.5 0.00 0.00 0.00 76 1017.8
20260508100036 46 201 0.9 3.5 0.00 0.00 0.00 73 1017.8
20260508094537 47 151 1.7 3.5 0.00 0.00 0.00 71 1017.7
20260508091535 46 162 1.7 3.5 0.00 0.00 0.00 73 1017.6
20260508090032 47 177 0.9 4.3 0.00 0.00 0.00 70 1017.7
20260508084534 48 174 1.7 4.3 0.00 0.00 0.00 67 1017.7
20260508083035 49 164 1.7 2.6 0.00 0.00 0.00 63 1017.7
20260508081530 51 168 1.7 3.5 0.00 0.00 0.00 59 1017.7
20260508080110 52 104 0.9 4.3 0.00 0.00 0.00 56 1017.7
20260508074535 57 203 0.9 3.5 0.00 0.00 0.00 47 1017.8
20260508071608 58 232 2.6 7.0 0.00 0.00 0.00 45 1017.8
20260508070035 58 233 3.5 7.0 0.00 0.00 0.00 44 1017.8
20260508064535 59 223 5.2 11.3 0.00 0.00 0.00 43 1017.8
20260508061610 60 220 7.8 13.9 0.00 0.00 0.00 42 1017.7
20260508060030 60 217 8.7 17.4 0.00 0.00 0.00 40 1017.8
20260508054536 60 218 8.7 15.6 0.00 0.00 0.00 38 1017.8
20260508053035 60 222 7.0 12.2 0.00 0.00 0.00 36 1018.0
20260508050044 60 225 7.8 13.9 0.00 0.00 0.00 35 1017.9
20260508044534 60 217 7.8 13.9 0.00 0.00 0.00 34 1017.8
20260508043033 61 220 7.0 13.9 0.00 0.00 0.00 33 1017.7
20260508041533 61 221 7.8 16.5 0.00 0.00 0.00 32 1017.6
20260508040031 61 220 7.8 16.5 0.00 0.00 0.00 31 1017.5
20260508034535 62 214 7.8 15.6 0.00 0.00 0.00 30 1017.4
20260508033036 62 215 7.8 14.8 0.00 0.00 0.00 29 1017.2
20260508031533 63 215 7.8 18.2 0.00 0.00 0.00 27 1017.2
20260508030037 65 212 6.1 11.3 0.00 0.00 0.00 29 1017.1
20260508023034 67 102 1.7 6.1 0.00 0.00 0.00 27 1017.0
20260508020034 69 326 1.7 3.5 0.00 0.00 0.00 25 1016.9
20260508014534 70 255 2.6 7.0 0.00 0.00 0.00 24 1016.9
20260508013034 71 306 1.7 7.0 0.00 0.00 0.00 22 1016.9
20260508011610 71 302 2.6 7.0 0.00 0.00 0.00 22 1017.0
20260508010036 72 356 0.9 5.2 0.00 0.00 0.00 23 1017.0
20260508004528 71 318 2.6 9.6 0.00 0.00 0.00 24 1016.9
20260508003034 71 340 4.3 10.4 0.00 0.00 0.00 23 1016.9
20260508001644 72 306 5.2 11.3 0.00 0.00 0.00 23 1016.8
20260507234542 72 340 4.3 9.6 0.00 0.00 0.00 29 1016.8
20260507234536 71 1 4.3 9.6 0.00 0.00 0.00 30 1016.9
20260507231533 69 333 4.3 10.4 0.00 0.00 0.00 30 1017.2
20260507230030 70 343 4.3 8.7 0.00 0.00 0.00 32 1017.2
20260507224530 70 340 4.3 7.8 0.00 0.00 0.00 32 1017.3
20260507223032 70 337 4.3 9.6 0.00 0.00 0.00 32 1017.4
20260507221620 71 337 4.3 9.6 0.00 0.00 0.00 33 1017.5
20260507220143 71 12 4.3 9.6 0.00 0.00 0.00 39 1017.7
20260507210032 69 41 3.5 8.7 0.00 0.00 0.00 41 1018.1
20260507204536 69 38 4.3 8.7 0.00 0.00 0.00 41 1018.2
20260507203037 69 40 2.6 8.7 0.00 0.00 0.00 40 1018.4
20260507200037 68 13 4.3 9.6 0.00 0.00 0.00 42 1018.6
20260507194535 67 318 2.6 6.1 0.00 0.00 0.00 42 1018.6
20260507193037 67 348 2.6 8.7 0.00 0.00 0.00 43 1018.8
20260507191612 66 333 3.5 7.8 0.00 0.00 0.00 46 1018.9
20260507184537 63 24 5.2 12.2 0.00 0.00 0.00 52 1019.3
20260507181537 63 23 6.1 13.0 0.00 0.00 0.00 52 1019.4
20260507180110 63 37 3.5 7.8 0.00 0.00 0.00 54 1019.6
20260507174537 62 45 4.3 8.7 0.00 0.00 0.00 55 1019.8
20260507173035 61 43 4.3 8.7 0.00 0.00 0.00 57 1020.0
20260507171538 60 45 4.3 9.6 0.00 0.00 0.00 58 1020.1
20260507170031 59 24 3.5 7.0 0.00 0.00 0.00 60 1020.0
20260507163037 59 44 3.5 9.6 0.00 0.00 0.00 61 1020.2
20260507160111 58 22 3.5 7.0 0.00 0.00 0.00 63 1020.3
20260507154609 58 27 2.6 7.0 0.00 0.00 0.00 65 1020.4
20260507153036 57 50 2.6 5.2 0.00 0.00 0.00 68 1020.4
20260507151537 56 89 1.7 5.2 0.00 0.00 0.00 69 1020.5
20260507150051 55 102 0.9 6.1 0.00 0.00 0.00 73 1020.5
20260507144537 51 52 0.9 4.3 0.00 0.00 0.00 79 1020.5
20260507141534 49 58 3.5 7.8 0.00 0.00 0.00 83 1020.4